Change the Weather History Date:

Saturday, April 5, 2014

  Actual Average Record
Temperature  
Mean Temperature 42 °F -  
Max Temperature 50 °F 49 °F 62 °F (2005)
Min Temperature 35 °F 32 °F 23 °F (2002)
Degree Days  
Heating Degree Days 22    
Moisture  
Dew Point 28 °F    
Average Humidity 67    
Maximum Humidity 93    
Minimum Humidity 42    
Precipitation  
Precipitation 0.10 in - - ()
Sea Level Pressure  
Sea Level Pressure 29.83 in    
Wind  
Wind Speed 8 mph (NNW)    
Max Wind Speed 23 mph    
Max Gust Speed 34 mph    
Visibility 8 miles    
Events Fog    
Averages and records for this station are not official NWS values.
T = Trace of Precipitation, MM = Missing Value Source: NWS Daily Summary

Daily Weather History Graph

Daily Weather History Graph

Search for Another Location

Airport or City:

Trip Planner

Search our weather history database for the weather conditions in past years. The results will help you decide how hot, cold, wet, or windy it might be!

Date:

Astronomy

Apr. 05, 2014 Rise Set
Actual Time 6:28 AM EDT 7:22 PM EDT
Civil Twilight 6:00 AM EDT 7:50 PM EDT
Nautical Twilight 5:27 AM EDT 8:23 PM EDT
Astronomical Twilight 4:52 AM EDT 8:58 PM EDT
Moon 10:31 AM EDT (4/5) 12:32 AM EDT (4/5)
Length of Visible Light 13h 49m
Length of Day
12h 53m
Waxing Crescent, 34% of the Moon is Illuminated
Apr 5
Waxing Crescent
Apr 7
First Quarter
Apr 15
Full
Apr 22
Last Quarter
Apr 29
New

Hourly Weather History & Observations

Time (EDT) Temp. Windchill Dew Point Humidity Pressure Visibility Wind Dir Wind Speed Gust Speed Precip Events Conditions
12:15 AM 37.4 °F 32.1 °F 32.0 °F 81% 29.78 in 2.5 mi East 6.9 mph - 0.01 in   Overcast
12:35 AM 37.4 °F 32.1 °F 32.0 °F 81% 29.80 in 2.0 mi North 6.9 mph - 0.04 in   Overcast
12:55 AM 37.4 °F 32.1 °F 32.0 °F 81% 29.80 in 5.0 mi NE 6.9 mph - 0.09 in   Overcast
1:15 AM 37.4 °F 31.4 °F 30.2 °F 75% 29.79 in 9.0 mi ENE 8.1 mph - N/A   Overcast
1:35 AM 35.6 °F 29.9 °F 30.2 °F 81% 29.78 in 7.0 mi NE 6.9 mph - N/A   Overcast
1:55 AM 37.4 °F 30.3 °F 32.0 °F 81% 29.77 in 10.0 mi ENE 10.4 mph - N/A   Overcast
2:15 AM 35.6 °F 28.0 °F 30.2 °F 81% 29.76 in 10.0 mi NE 10.4 mph - 0.01 in   Overcast
2:35 AM 35.6 °F 29.2 °F 30.2 °F 81% 29.73 in 10.0 mi ENE 8.1 mph - 0.01 in   Overcast
2:55 AM 35.6 °F 29.9 °F 30.2 °F 81% 29.75 in 10.0 mi North 6.9 mph - 0.01 in   Overcast
3:15 AM 35.6 °F 29.9 °F 30.2 °F 81% 29.74 in 10.0 mi NNE 6.9 mph - N/A   Overcast
3:35 AM 35.6 °F 28.0 °F 30.2 °F 81% 29.75 in 5.0 mi North 10.4 mph - N/A   Overcast
3:55 AM 35.6 °F 28.6 °F 32.0 °F 87% 29.74 in 2.5 mi NNE 9.2 mph - N/A   Overcast
4:15 AM 35.6 °F 28.6 °F 32.0 °F 87% 29.74 in 2.5 mi NNE 9.2 mph - N/A   Overcast
4:35 AM 35.6 °F 30.7 °F 32.0 °F 87% 29.74 in 2.5 mi NNE 5.8 mph - N/A   Overcast
4:55 AM 35.6 °F 29.2 °F 32.0 °F 87% 29.74 in 3.0 mi North 8.1 mph - N/A   Overcast
5:15 AM 35.6 °F 29.2 °F 32.0 °F 87% 29.74 in 2.5 mi NNE 8.1 mph - N/A   Overcast
5:35 AM 35.6 °F 29.9 °F 32.0 °F 87% 29.74 in 4.0 mi North 6.9 mph - N/A   Overcast
5:45 AM 35.6 °F 29.9 °F 32.0 °F 87% 29.75 in 3.0 mi North 6.9 mph - N/A   Overcast
5:55 AM 35.6 °F 29.9 °F 32.0 °F 87% 29.75 in 6.0 mi North 6.9 mph - N/A   Overcast
6:45 AM 35.6 °F 32.8 °F 30.2 °F 81% 29.76 in 2.0 mi North 3.5 mph - N/A   Overcast
7:52 AM 37.4 °F 34.9 °F 33.8 °F 87% 29.78 in 0.2 mi Variable 3.5 mph - N/A Fog Fog
8:52 AM 39.2 °F 33.0 °F 35.6 °F 87% 29.78 in 7.0 mi WNW 9.2 mph - N/A   Overcast
9:13 AM 39.2 °F 35.0 °F 37.4 °F 93% 29.77 in 7.0 mi WNW 5.8 mph - N/A   Scattered Clouds
9:52 AM 44.6 °F - 37.4 °F 76% 29.79 in 10.0 mi North - - N/A   Scattered Clouds
10:52 AM 46.4 °F 41.1 °F 35.6 °F 66% 29.79 in 10.0 mi West 11.5 mph 28.8 mph N/A   Scattered Clouds
11:50 AM 50.0 °F - 32.0 °F 50% 29.79 in 10.0 mi WNW 13.8 mph 27.6 mph N/A   Mostly Cloudy
12:50 PM 48.2 °F - 28.4 °F 46% 29.81 in 10.0 mi WNW 12.7 mph 29.9 mph N/A   Mostly Cloudy
1:57 PM 48.2 °F - 26.6 °F 43% 29.81 in 10.0 mi WNW 12.7 mph 23.0 mph N/A   Overcast
2:48 PM 50.0 °F - 28.4 °F 43% 29.81 in 10.0 mi WNW 12.7 mph 27.6 mph N/A   Overcast
3:45 PM 48.2 °F - 26.6 °F 43% 29.83 in 10.0 mi WNW 20.7 mph 34.5 mph N/A   Mostly Cloudy
4:45 PM 48.2 °F - 26.6 °F 43% 29.85 in 10.0 mi West 23.0 mph 34.5 mph N/A   Mostly Cloudy
5:45 PM 46.4 °F 39.5 °F 24.8 °F 43% 29.88 in 10.0 mi WNW 17.3 mph 28.8 mph N/A   Mostly Cloudy
6:45 PM 42.8 °F 34.8 °F 21.2 °F 42% 29.92 in 10.0 mi WNW 17.3 mph 28.8 mph N/A   Partly Cloudy
7:45 PM 41.0 °F 34.3 °F 21.2 °F 45% 29.94 in 10.0 mi NW 11.5 mph 23.0 mph N/A   Clear
9:15 PM 39.2 °F - 19.4 °F 45% 29.99 in 10.0 mi Calm Calm - N/A   Clear
9:35 PM 37.4 °F 33.8 °F 19.4 °F 48% 29.99 in 10.0 mi WNW 4.6 mph - N/A   Clear
9:55 PM 37.4 °F 31.4 °F 19.4 °F 48% 30.00 in 10.0 mi NW 8.1 mph - N/A   Clear
10:15 PM 37.4 °F 34.9 °F 19.4 °F 48% 30.01 in 10.0 mi WNW 3.5 mph - N/A   Clear
10:35 PM 37.4 °F 32.1 °F 19.4 °F 48% 30.01 in 10.0 mi NW 6.9 mph - N/A   Clear
10:55 PM 37.4 °F 32.8 °F 17.6 °F 45% 30.02 in 10.0 mi WNW 5.8 mph - N/A   Clear
11:15 PM 35.6 °F 30.7 °F 17.6 °F 48% 30.02 in 10.0 mi WNW 5.8 mph - N/A   Clear
11:35 PM 35.6 °F 30.7 °F 17.6 °F 48% 30.02 in 10.0 mi West 5.8 mph - N/A   Clear
11:55 PM 35.6 °F 29.2 °F 17.6 °F 48% 30.03 in 10.0 mi WNW 8.1 mph - N/A   Clear